| time (UTC) | temp C | wind direction | speed KPH | gust KPH | rain 1hr cm | rain 24hr cm | rain mn cm | humidity % | barometer mb |
| 20260504010944 | 9 | 157 | 4.8 | 9.7 | 0.00 | 0.00 | 0.00 | 67 | 1014.7 |
| 20260504010440 | 9 | 133 | 6.4 | 9.7 | 0.00 | 0.00 | 0.00 | 67 | 1014.8 |
| 20260504005936 | 9 | 203 | 4.8 | 6.4 | 0.00 | 0.00 | 0.00 | 67 | 1014.9 |
| 20260504005433 | 10 | 110 | 1.6 | 1.6 | 0.00 | 0.00 | 0.00 | 66 | 1014.9 |
| 20260504004930 | 10 | 110 | 1.6 | 3.2 | 0.00 | 0.00 | 0.00 | 66 | 1014.8 |
| 20260504004428 | 10 | 290 | 4.8 | 9.7 | 0.00 | 0.00 | 0.00 | 64 | 1014.9 |
| 20260504003925 | 10 | 226 | 1.6 | 1.6 | 0.00 | 0.00 | 0.00 | 64 | 1015.1 |
| 20260504003421 | 10 | 298 | 6.4 | 9.7 | 0.00 | 0.00 | 0.00 | 64 | 1014.8 |
| 20260504002918 | 10 | 173 | 0.0 | 1.6 | 0.00 | 0.00 | 0.00 | 62 | 1014.9 |
| 20260504002415 | 10 | 288 | 4.8 | 6.4 | 0.00 | 0.00 | 0.00 | 62 | 1014.8 |
| 20260504001912 | 10 | 241 | 3.2 | 4.8 | 0.00 | 0.00 | 0.00 | 60 | 1014.8 |
| 20260504001410 | 10 | 241 | 6.4 | 9.7 | 0.00 | 0.00 | 0.00 | 59 | 1014.7 |
| 20260504000906 | 11 | 230 | 6.4 | 9.7 | 0.00 | 0.00 | 0.00 | 57 | 1014.8 |
| 20260504000403 | 12 | 296 | 6.4 | 9.7 | 0.00 | 0.00 | 0.00 | 49 | 1014.5 |
| 20260503235901 | 12 | 324 | 3.2 | 4.8 | 0.00 | 0.00 | 0.00 | 46 | 1014.2 |
| 20260503235358 | 13 | 222 | 3.2 | 4.8 | 0.00 | 0.00 | 0.00 | 43 | 1014.2 |
| 20260503234855 | 13 | 222 | 3.2 | 4.8 | 0.00 | 0.00 | 0.00 | 43 | 1014.2 |
| 20260503234353 | 13 | 229 | 4.8 | 6.4 | 0.00 | 0.00 | 0.00 | 43 | 1014.3 |
| 20260503233850 | 13 | 278 | 1.6 | 4.8 | 0.00 | 0.00 | 0.00 | 44 | 1014.4 |
| 20260503233347 | 13 | 276 | 3.2 | 4.8 | 0.00 | 0.00 | 0.00 | 43 | 1014.1 |
| 20260503232843 | 13 | 123 | 1.6 | 3.2 | 0.00 | 0.00 | 0.00 | 43 | 1014.3 |
| 20260503232340 | 13 | 222 | 9.7 | 12.9 | 0.00 | 0.00 | 0.00 | 43 | 1014.4 |
| 20260503231839 | 13 | 222 | 9.7 | 12.9 | 0.00 | 0.00 | 0.00 | 43 | 1014.4 |
| 20260503231335 | 13 | 261 | 3.2 | 4.8 | 0.00 | 0.00 | 0.00 | 44 | 1014.4 |
| 20260503230831 | 13 | 261 | 3.2 | 4.8 | 0.00 | 0.00 | 0.00 | 44 | 1014.5 |
| 20260503230328 | 13 | 202 | 1.6 | 9.7 | 0.00 | 0.00 | 0.00 | 43 | 1014.5 |
| 20260503225826 | -17 | 0.0 | 0.0 | 0.00 | 0.00 | 0.00 | 1014.6 | ||
| 20260503225322 | 13 | 224 | 6.4 | 9.7 | 0.00 | 0.00 | 0.00 | 40 | 1014.6 |
| 20260503224818 | 13 | 224 | 6.4 | 9.7 | 0.00 | 0.00 | 0.00 | 40 | 1014.5 |
| 20260503224316 | 13 | 218 | 3.2 | 9.7 | 0.00 | 0.00 | 0.00 | 41 | 1014.5 |
| 20260503223813 | 13 | 237 | 3.2 | 4.8 | 0.00 | 0.00 | 0.00 | 42 | 1014.7 |
| 20260503223311 | 13 | 129 | 3.2 | 9.7 | 0.00 | 0.00 | 0.00 | 41 | 1014.5 |
| 20260503222806 | 13 | 2 | 4.8 | 6.4 | 0.00 | 0.00 | 0.00 | 42 | 1014.5 |
| 20260503222305 | 13 | 272 | 6.4 | 9.7 | 0.00 | 0.00 | 0.00 | 42 | 1014.7 |
| 20260503221803 | 13 | 230 | 6.4 | 12.9 | 0.00 | 0.00 | 0.00 | 40 | 1014.7 |
| 20260503221300 | 13 | 241 | 6.4 | 9.7 | 0.00 | 0.00 | 0.00 | 41 | 1014.9 |
| 20260503220756 | 13 | 225 | 6.4 | 6.4 | 0.00 | 0.00 | 0.00 | 42 | 1014.9 |
| 20260503220254 | 13 | 207 | 4.8 | 6.4 | 0.00 | 0.00 | 0.00 | 40 | 1014.7 |
| 20260503215750 | 14 | 280 | 8.0 | 12.9 | 0.00 | 0.00 | 0.00 | 40 | 1015.1 |
| 20260503215247 | 14 | 233 | 1.6 | 6.4 | 0.00 | 0.00 | 0.00 | 41 | 1014.9 |
| 20260503214745 | 13 | 240 | 3.2 | 4.8 | 0.00 | 0.00 | 0.00 | 40 | 1015.1 |
| 20260503214242 | 13 | 293 | 6.4 | 6.4 | 0.00 | 0.00 | 0.00 | 40 | 1015.1 |
| 20260503213740 | 13 | 204 | 3.2 | 9.7 | 0.00 | 0.00 | 0.00 | 43 | 1015.2 |
| 20260503213237 | 14 | 235 | 6.4 | 14.5 | 0.00 | 0.00 | 0.00 | 39 | 1014.9 |
| 20260503212734 | 14 | 138 | 12.9 | 16.1 | 0.00 | 0.00 | 0.00 | 40 | 1015.2 |
| 20260503212232 | 14 | 259 | 4.8 | 9.7 | 0.00 | 0.00 | 0.00 | 40 | 1015.2 |
| 20260503211729 | 14 | 284 | 3.2 | 11.3 | 0.00 | 0.00 | 0.00 | 40 | 1015.2 |
| 20260503211225 | 14 | 228 | 3.2 | 11.3 | 0.00 | 0.00 | 0.00 | 40 | 1015.2 |
| 20260503210720 | 14 | 236 | 1.6 | 6.4 | 0.00 | 0.00 | 0.00 | 41 | 1015.2 |
| 20260503210218 | 14 | 246 | 4.8 | 9.7 | 0.00 | 0.00 | 0.00 | 41 | 1015.1 |
| 20260503205713 | 14 | 220 | 6.4 | 12.9 | 0.00 | 0.00 | 0.00 | 41 | 1015.2 |
| 20260503205210 | 14 | 295 | 6.4 | 11.3 | 0.00 | 0.00 | 0.00 | 41 | 1015.3 |
| 20260503204706 | 14 | 140 | 3.2 | 11.3 | 0.00 | 0.00 | 0.00 | 40 | 1015.1 |
| 20260503204204 | 14 | 301 | 3.2 | 6.4 | 0.00 | 0.00 | 0.00 | 43 | 1015.4 |
| 20260503203701 | 14 | 231 | 3.2 | 11.3 | 0.00 | 0.00 | 0.00 | 39 | 1015.4 |
| 20260503203159 | 15 | 228 | 3.2 | 14.5 | 0.00 | 0.00 | 0.00 | 39 | 1015.3 |
| 20260503202655 | 15 | 303 | 4.8 | 6.4 | 0.00 | 0.00 | 0.00 | 42 | 1015.4 |
| 20260503202154 | 14 | 294 | 3.2 | 4.8 | 0.00 | 0.00 | 0.00 | 42 | 1015.5 |
| 20260503201651 | 14 | 225 | 3.2 | 14.5 | 0.00 | 0.00 | 0.00 | 42 | 1015.6 |
| 20260503201149 | 15 | 93 | 6.4 | 11.3 | 0.00 | 0.00 | 0.00 | 39 | 1015.5 |
| 20260503200644 | 15 | 289 | 4.8 | 4.8 | 0.00 | 0.00 | 0.00 | 40 | 1015.5 |
| 20260503200141 | 15 | 203 | 4.8 | 14.5 | 0.00 | 0.00 | 0.00 | 41 | 1015.6 |
| 20260503195638 | 15 | 193 | 4.8 | 6.4 | 0.00 | 0.00 | 0.00 | 41 | 1015.7 |
| 20260503195135 | 15 | 255 | 3.2 | 3.2 | 0.00 | 0.00 | 0.00 | 40 | 1015.7 |
| 20260503194632 | 15 | 234 | 4.8 | 9.7 | 0.00 | 0.00 | 0.00 | 40 | 1015.8 |
| 20260503194127 | 14 | 234 | 3.2 | 4.8 | 0.00 | 0.00 | 0.00 | 41 | 1015.7 |
| 20260503193625 | 14 | 255 | 3.2 | 11.3 | 0.00 | 0.00 | 0.00 | 39 | 1016.0 |
| 20260503193120 | 14 | 144 | 3.2 | 9.7 | 0.00 | 0.00 | 0.00 | 41 | 1016.1 |
| 20260503192616 | 15 | 285 | 3.2 | 9.7 | 0.00 | 0.00 | 0.00 | 40 | 1016.2 |
| 20260503192112 | 15 | 312 | 3.2 | 4.8 | 0.00 | 0.00 | 0.00 | 40 | 1016.1 |
| 20260503191604 | 14 | 250 | 1.6 | 4.8 | 0.00 | 0.00 | 0.00 | 41 | 1016.2 |
| 20260503191100 | 13 | 137 | 6.4 | 22.5 | 0.00 | 0.00 | 0.00 | 41 | 1016.4 |
| 20260503190557 | 14 | 236 | 9.7 | 12.9 | 0.00 | 0.00 | 0.00 | 40 | 1016.5 |
| 20260503190054 | 14 | 186 | 4.8 | 6.4 | 0.00 | 0.00 | 0.00 | 40 | 1016.5 |
| 20260503185551 | 14 | 306 | 9.7 | 12.9 | 0.00 | 0.00 | 0.00 | 39 | 1016.8 |
| 20260503185050 | 14 | 249 | 11.3 | 17.7 | 0.00 | 0.00 | 0.00 | 39 | 1016.7 |
| 20260503184546 | 14 | 265 | 6.4 | 11.3 | 0.00 | 0.00 | 0.00 | 38 | 1016.8 |
| 20260503184043 | 15 | 223 | 4.8 | 6.4 | 0.00 | 0.00 | 0.00 | 39 | 1016.9 |
| 20260503183534 | 13 | 159 | 3.2 | 4.8 | 0.00 | 0.00 | 0.00 | 41 | 1016.9 |
| 20260503183031 | 14 | 295 | 6.4 | 9.7 | 0.00 | 0.00 | 0.00 | 41 | 1016.8 |
| 20260503182530 | 14 | 162 | 4.8 | 9.7 | 0.00 | 0.00 | 0.00 | 40 | 1016.8 |
| 20260503182027 | 15 | 292 | 1.6 | 3.2 | 0.00 | 0.00 | 0.00 | 39 | 1016.8 |
| 20260503181524 | 14 | 265 | 3.2 | 6.4 | 0.00 | 0.00 | 0.00 | 40 | 1017.0 |
| 20260503181020 | 15 | 288 | 8.0 | 9.7 | 0.00 | 0.00 | 0.00 | 42 | 1017.1 |
| 20260503180518 | 15 | 239 | 11.3 | 22.5 | 0.00 | 0.00 | 0.00 | 39 | 1017.1 |
| 20260503180015 | 15 | 223 | 4.8 | 11.3 | 0.00 | 0.00 | 0.00 | 44 | 1016.9 |
| 20260503175512 | 15 | 278 | 1.6 | 6.4 | 0.00 | 0.00 | 0.00 | 43 | 1017.1 |
| 20260503175009 | 15 | 222 | 4.8 | 9.7 | 0.00 | 0.00 | 0.00 | 41 | 1017.3 |
| 20260503174507 | 15 | 251 | 8.0 | 12.9 | 0.00 | 0.00 | 0.00 | 39 | 1017.3 |
| 20260503174003 | 14 | 307 | 8.0 | 11.3 | 0.00 | 0.00 | 0.00 | 39 | 1017.2 |
| 20260503173457 | 15 | 240 | 1.6 | 6.4 | 0.00 | 0.00 | 0.00 | 39 | 1017.5 |
| 20260503172949 | 15 | 275 | 4.8 | 9.7 | 0.00 | 0.00 | 0.00 | 40 | 1017.2 |
| 20260503172446 | 14 | 359 | 3.2 | 6.4 | 0.00 | 0.00 | 0.00 | 43 | 1017.4 |
| 20260503171943 | 14 | 235 | 4.8 | 4.8 | 0.00 | 0.00 | 0.00 | 44 | 1017.5 |
| 20260503171439 | 14 | 249 | 9.7 | 14.5 | 0.00 | 0.00 | 0.00 | 42 | 1017.9 |
| 20260503170937 | 14 | 122 | 0.0 | 4.8 | 0.00 | 0.00 | 0.00 | 42 | 1017.7 |
| 20260503170433 | 14 | 190 | 6.4 | 9.7 | 0.00 | 0.00 | 0.00 | 45 | 1017.7 |
| 20260503150819 | 11 | 160 | 4.8 | 6.4 | 0.00 | 0.00 | 0.00 | 48 | 1018.4 |
| 20260503150315 | 11 | 193 | 8.0 | 11.3 | 0.00 | 0.00 | 0.00 | 51 | 1018.8 |
| 20260503140240 | 10 | 233 | 4.8 | 4.8 | 0.00 | 0.00 | 0.00 | 49 | 1018.5 |
| 20260503131210 | 7 | 145 | 4.8 | 4.8 | 0.00 | 0.00 | 0.00 | 60 | 1019.0 |
| 20260503130707 | 7 | 145 | 4.8 | 4.8 | 0.00 | 0.00 | 0.00 | 60 | 1018.9 |
| 20260503130204 | 6 | 215 | 3.2 | 3.2 | 0.00 | 0.00 | 0.00 | 62 | 1019.1 |
| 20260503120130 | 3 | 259 | 1.6 | 3.2 | 0.00 | 0.00 | 0.00 | 68 | 1019.0 |
| 20260503110557 | -17 | 0.0 | 0.0 | 0.00 | 0.00 | 0.00 | 1018.4 | ||
| 20260503090438 | -17 | 0.0 | 0.0 | 0.00 | 0.00 | 0.00 | 1018.1 | ||
| 20260503081404 | -17 | 0.0 | 0.0 | 0.00 | 0.00 | 0.00 | 1018.3 | ||
| 20260503080901 | -17 | 0.0 | 0.0 | 0.00 | 0.00 | 0.00 | 1018.2 | ||
| 20260503080358 | -17 | 0.0 | 0.0 | 0.00 | 0.00 | 0.00 | 1018.2 | ||
| 20260503072834 | -17 | 0.0 | 0.0 | 0.00 | 0.00 | 0.00 | 1018.1 | ||
| 20260503072331 | -17 | 0.0 | 0.0 | 0.00 | 0.00 | 0.00 | 1018.0 | ||
| 20260503071827 | -17 | 0.0 | 0.0 | 0.00 | 0.00 | 0.00 | 1018.2 | ||
| 20260503071325 | -17 | 0.0 | 0.0 | 0.00 | 0.00 | 0.00 | 1018.1 | ||
| 20260503070821 | -17 | 0.0 | 0.0 | 0.00 | 0.00 | 0.00 | 1018.2 | ||
| 20260503070319 | -17 | 0.0 | 0.0 | 0.00 | 0.00 | 0.00 | 1018.1 | ||
| 20260503060245 | -17 | 0.0 | 0.0 | 0.00 | 0.00 | 0.00 | 1018.3 | ||
| 20260503054732 | -17 | 0.0 | 0.0 | 0.00 | 0.00 | 0.00 | 1018.4 | ||
| 20260503054229 | -17 | 0.0 | 0.0 | 0.00 | 0.00 | 0.00 | 1018.4 | ||
| 20260503053726 | -17 | 0.0 | 0.0 | 0.00 | 0.00 | 0.00 | 1018.4 | ||
| 20260503053225 | -17 | 0.0 | 0.0 | 0.00 | 0.00 | 0.00 | 1018.4 | ||
| 20260503052721 | -17 | 0.0 | 0.0 | 0.00 | 0.00 | 0.00 | 1018.4 | ||
| 20260503052218 | -17 | 0.0 | 0.0 | 0.00 | 0.00 | 0.00 | 1018.4 | ||
| 20260503051713 | -17 | 0.0 | 0.0 | 0.00 | 0.00 | 0.00 | 1018.3 | ||
| 20260503051211 | -17 | 0.0 | 0.0 | 0.00 | 0.00 | 0.00 | 1018.6 | ||
| 20260503050707 | -17 | 0.0 | 0.0 | 0.00 | 0.00 | 0.00 | 1018.5 | ||
| 20260503050204 | -17 | 0.0 | 0.0 | 0.00 | 0.00 | 0.00 | 1018.3 | ||
| 20260503045701 | -17 | 0.0 | 0.0 | 0.00 | 0.00 | 0.00 | 1018.5 | ||
| 20260503045159 | -17 | 0.0 | 0.0 | 0.00 | 0.00 | 0.00 | 1018.6 | ||
| 20260503044655 | -17 | 0.0 | 0.0 | 0.00 | 0.00 | 0.00 | 1018.4 | ||
| 20260503044152 | -17 | 0.0 | 0.0 | 0.00 | 0.00 | 0.00 | 1018.3 | ||
| 20260503043649 | -17 | 0.0 | 0.0 | 0.00 | 0.00 | 0.00 | 1018.4 | ||
| 20260503043146 | -17 | 0.0 | 0.0 | 0.00 | 0.00 | 0.00 | 1018.4 | ||
| 20260503042642 | -17 | 0.0 | 0.0 | 0.00 | 0.00 | 0.00 | 1018.5 | ||
| 20260503042139 | -17 | 0.0 | 0.0 | 0.00 | 0.00 | 0.00 | 1018.4 | ||
| 20260503041635 | -17 | 0.0 | 0.0 | 0.00 | 0.00 | 0.00 | 1018.5 | ||
| 20260503041133 | -17 | 0.0 | 0.0 | 0.00 | 0.00 | 0.00 | 1018.3 | ||
| 20260503040630 | -17 | 0.0 | 0.0 | 0.00 | 0.00 | 0.00 | 1018.4 | ||
| 20260503040127 | -17 | 0.0 | 0.0 | 0.00 | 0.00 | 0.00 | 1018.4 | ||
| 20260503035624 | -17 | 0.0 | 0.0 | 0.00 | 0.00 | 0.00 | 1018.6 | ||
| 20260503035121 | -17 | 0.0 | 0.0 | 0.00 | 0.00 | 0.00 | 1018.6 | ||
| 20260503034618 | -17 | 0.0 | 0.0 | 0.00 | 0.00 | 0.00 | 1018.5 | ||
| 20260503034110 | -17 | 0.0 | 0.0 | 0.00 | 0.00 | 0.00 | 1018.5 | ||
| 20260503033607 | 3 | 16 | 0.0 | 0.0 | 0.00 | 0.00 | 0.00 | 80 | 1018.5 |
| 20260503033105 | 3 | 16 | 0.0 | 0.0 | 0.00 | 0.00 | 0.00 | 80 | 1018.9 |
| 20260503032603 | -17 | 0.0 | 0.0 | 0.00 | 0.00 | 0.00 | 1018.5 | ||
| 20260503032101 | -17 | 0.0 | 0.0 | 0.00 | 0.00 | 0.00 | 1018.7 | ||
| 20260503031558 | -17 | 0.0 | 0.0 | 0.00 | 0.00 | 0.00 | 1018.7 | ||
| 20260503031056 | -17 | 0.0 | 0.0 | 0.00 | 0.00 | 0.00 | 1018.7 | ||
| 20260503030552 | -17 | 0.0 | 0.0 | 0.00 | 0.00 | 0.00 | 1018.7 | ||
| 20260503030049 | -17 | 0.0 | 0.0 | 0.00 | 0.00 | 0.00 | 1018.8 | ||
| 20260503025545 | -17 | 0.0 | 0.0 | 0.00 | 0.00 | 0.00 | 1018.8 | ||
| 20260503025043 | 3 | 236 | 0.0 | 1.6 | 0.00 | 0.00 | 0.00 | 80 | 1018.9 |
| 20260503024539 | -17 | 0.0 | 0.0 | 0.00 | 0.00 | 0.00 | 1018.8 | ||
| 20260503024037 | -17 | 0.0 | 0.0 | 0.00 | 0.00 | 0.00 | 1018.8 | ||
| 20260503023533 | 3 | 246 | 0.0 | 0.0 | 0.00 | 0.00 | 0.00 | 83 | 1018.8 |
| 20260503023031 | 3 | 246 | 0.0 | 0.0 | 0.00 | 0.00 | 0.00 | 83 | 1018.9 |
| 20260503022526 | 3 | 213 | 0.0 | 0.0 | 0.00 | 0.00 | 0.00 | 82 | 1018.9 |
| 20260503022021 | 3 | 263 | 0.0 | 0.0 | 0.00 | 0.00 | 0.00 | 86 | 1018.9 |
| 20260503021518 | 3 | 263 | 0.0 | 0.0 | 0.00 | 0.00 | 0.00 | 86 | 1018.9 |
| 20260503021015 | 3 | 265 | 0.0 | 0.0 | 0.00 | 0.00 | 0.00 | 85 | 1018.9 |
| 20260503020513 | -17 | 0.0 | 0.0 | 0.00 | 0.00 | 0.00 | 1018.9 | ||
| 20260503020009 | -17 | 0.0 | 0.0 | 0.00 | 0.00 | 0.00 | 1019.0 | ||
| 20260503015506 | -17 | 0.0 | 0.0 | 0.00 | 0.00 | 0.00 | 1018.8 | ||
| 20260503015003 | -17 | 0.0 | 0.0 | 0.00 | 0.00 | 0.00 | 1018.8 | ||
| 20260503014459 | -17 | 0.0 | 0.0 | 0.00 | 0.00 | 0.00 | 1018.8 | ||
| 20260503013957 | -17 | 0.0 | 0.0 | 0.00 | 0.00 | 0.00 | 1018.6 | ||
| 20260503013454 | -17 | 0.0 | 0.0 | 0.00 | 0.00 | 0.00 | 1018.9 | ||
| 20260503012951 | -17 | 0.0 | 0.0 | 0.00 | 0.00 | 0.00 | 1019.0 | ||
| 20260503012449 | -17 | 0.0 | 0.0 | 0.00 | 0.00 | 0.00 | 1018.8 | ||
| 20260503011945 | -17 | 0.0 | 0.0 | 0.00 | 0.00 | 0.00 | 1018.8 | ||
| 20260503011442 | -17 | 0.0 | 0.0 | 0.00 | 0.00 | 0.00 | 1018.8 |